Time,TemperatureF,DewpointF,PressureIn,WindDirection,WindDirectionDegrees,WindSpeedMPH,WindSpeedGustMPH,Humidity,HourlyPrecipIn,Conditions,Clouds,dailyrainin,SoftwareType,DateUTC
2013-10-22 00:14:00,39.0,-99.9,-100.00,SW,225,0.0,-999.0,-999,-99.99,,,-99.99,,2013-10-22 04:14:00,
2013-10-22 00:25:00,38.0,-99.9,-100.00,SW,221,0.0,-999.0,-999,-99.99,,,-99.99,,2013-10-22 04:25:00,
2013-10-22 00:55:00,37.0,-99.9,-100.00,SW,223,3.0,-999.0,-999,-99.99,,,-99.99,,2013-10-22 04:55:00,
2013-10-22 01:23:00,37.0,-99.9,-100.00,SW,225,0.0,-999.0,-999,-99.99,,,-99.99,,2013-10-22 05:23:00,
2013-10-22 01:53:00,36.0,-99.9,-100.00,SSW,213,1.0,-999.0,-999,-99.99,,,-99.99,,2013-10-22 05:53:00,
2013-10-22 02:12:00,35.0,-99.9,-100.00,WSW,245,0.0,-999.0,-999,-99.99,,,-99.99,,2013-10-22 06:12:00,
2013-10-22 02:22:00,35.0,-99.9,-100.00,WSW,246,0.0,-999.0,-999,-99.99,,,-99.99,,2013-10-22 06:22:00,
2013-10-22 02:43:00,35.0,-99.9,-100.00,WSW,246,0.0,-999.0,-999,-99.99,,,-99.99,,2013-10-22 06:43:00,
2013-10-22 02:54:00,34.0,-99.9,-100.00,WSW,246,0.0,-999.0,-999,-99.99,,,-99.99,,2013-10-22 06:54:00,
2013-10-22 03:12:00,34.0,-99.9,-100.00,WSW,246,0.0,-999.0,-999,-99.99,,,-99.99,,2013-10-22 07:12:00,
2013-10-22 03:23:00,34.0,-99.9,-100.00,WSW,246,0.0,-999.0,-999,-99.99,,,-99.99,,2013-10-22 07:23:00,
2013-10-22 03:52:00,33.0,-99.9,-100.00,WSW,247,0.0,-999.0,-999,-99.99,,,-99.99,,2013-10-22 07:52:00,
2013-10-22 04:12:00,33.0,-99.9,-100.00,WSW,247,0.0,-999.0,-999,-99.99,,,-99.99,,2013-10-22 08:12:00,
2013-10-22 04:22:00,33.0,-99.9,-100.00,WSW,247,0.0,-999.0,-999,-99.99,,,-99.99,,2013-10-22 08:22:00,
2013-10-22 04:42:00,33.0,-99.9,-100.00,WSW,247,0.0,-999.0,-999,-99.99,,,-99.99,,2013-10-22 08:42:00,
2013-10-22 04:52:00,32.0,-99.9,-100.00,WSW,247,0.0,-999.0,-999,-99.99,,,-99.99,,2013-10-22 08:52:00,
2013-10-22 05:22:00,33.0,-99.9,-100.00,WSW,247,0.0,-999.0,-999,-99.99,,,-99.99,,2013-10-22 09:22:00,
2013-10-22 05:54:00,32.0,-99.9,-100.00,WSW,242,0.0,-999.0,-999,-99.99,,,-99.99,,2013-10-22 09:54:00,
2013-10-22 06:23:00,32.0,-99.9,-100.00,WSW,242,0.0,-999.0,-999,-99.99,,,-99.99,,2013-10-22 10:23:00,
2013-10-22 06:43:00,33.0,-99.9,-100.00,WSW,240,0.0,-999.0,-999,-99.99,,,-99.99,,2013-10-22 10:43:00,
2013-10-22 06:54:00,32.0,-99.9,-100.00,WSW,239,0.0,-999.0,-999,-99.99,,,-99.99,,2013-10-22 10:54:00,
2013-10-22 07:22:00,31.0,-99.9,-100.00,WSW,239,0.0,-999.0,-999,-99.99,,,-99.99,,2013-10-22 11:22:00,
2013-10-22 07:53:00,31.0,-99.9,-100.00,WSW,239,0.0,-999.0,-999,-99.99,,,-99.99,,2013-10-22 11:53:00,
2013-10-22 08:22:00,32.0,-99.9,-100.00,SW,233,0.0,-999.0,-999,-99.99,,,-99.99,,2013-10-22 12:22:00,
2013-10-22 08:42:00,32.0,-99.9,-100.00,SW,232,0.0,-999.0,-999,-99.99,,,-99.99,,2013-10-22 12:42:00,
2013-10-22 08:52:00,31.0,-99.9,-100.00,SW,232,0.0,-999.0,-999,-99.99,,,-99.99,,2013-10-22 12:52:00,
2013-10-22 09:22:00,33.0,-99.9,-100.00,SW,232,0.0,-999.0,-999,-99.99,,,-99.99,,2013-10-22 13:22:00,
2013-10-22 09:42:00,33.0,-99.9,-100.00,SW,231,1.0,-999.0,-999,-99.99,,,-99.99,,2013-10-22 13:42:00,
2013-10-22 09:53:00,34.0,-99.9,-100.00,WSW,239,0.0,-999.0,-999,-99.99,,,-99.99,,2013-10-22 13:53:00,
2013-10-22 10:22:00,36.0,-99.9,-100.00,SSW,209,3.0,-999.0,-999,-99.99,,,-99.99,,2013-10-22 14:22:00,
2013-10-22 10:42:00,37.0,-99.9,-100.00,SSW,212,1.0,-999.0,-999,-99.99,,,-99.99,,2013-10-22 14:42:00,
2013-10-22 10:52:00,38.0,-99.9,-100.00,SSW,193,2.0,-999.0,-999,-99.99,,,-99.99,,2013-10-22 14:52:00,
2013-10-22 11:22:00,40.0,-99.9,-100.00,South,187,4.0,-999.0,-999,-99.99,,,-99.99,,2013-10-22 15:22:00,
2013-10-22 11:54:00,42.0,-99.9,-100.00,SSW,192,0.0,-999.0,-999,-99.99,,,-99.99,,2013-10-22 15:54:00,
2013-10-22 12:23:00,43.0,-99.9,-100.00,SW,229,2.0,-999.0,-999,-99.99,,,-99.99,,2013-10-22 16:23:00,
2013-10-22 12:53:00,45.0,-99.9,-100.00,SW,228,2.0,-999.0,-999,-99.99,,,-99.99,,2013-10-22 16:53:00,
2013-10-22 13:22:00,45.0,-99.9,-100.00,WSW,258,0.0,-999.0,-999,-99.99,,,-99.99,,2013-10-22 17:22:00,
2013-10-22 13:43:00,46.0,-99.9,-100.00,SW,233,0.0,-999.0,-999,-99.99,,,-99.99,,2013-10-22 17:43:00,
2013-10-22 13:53:00,47.0,-99.9,-100.00,WSW,238,0.0,-999.0,-999,-99.99,,,-99.99,,2013-10-22 17:53:00,
2013-10-22 14:22:00,47.0,-99.9,-100.00,WSW,250,0.0,-999.0,-999,-99.99,,,-99.99,,2013-10-22 18:22:00,
2013-10-22 14:42:00,47.0,-99.9,-100.00,SSW,210,5.0,-999.0,-999,-99.99,,,-99.99,,2013-10-22 18:42:00,
2013-10-22 14:52:00,48.0,-99.9,-100.00,SW,226,2.0,-999.0,-999,-99.99,,,-99.99,,2013-10-22 18:52:00,
2013-10-22 15:22:00,47.0,-99.9,-100.00,WSW,244,0.0,-999.0,-999,-99.99,,,-99.99,,2013-10-22 19:22:00,
2013-10-22 15:43:00,47.0,-99.9,-100.00,WSW,240,0.0,-999.0,-999,-99.99,,,-99.99,,2013-10-22 19:43:00,
2013-10-22 15:53:00,47.0,-99.9,-100.00,WSW,252,3.0,-999.0,-999,-99.99,,,-99.99,,2013-10-22 19:53:00,
2013-10-22 16:23:00,45.0,-99.9,-100.00,West,275,0.0,-999.0,-999,-99.99,,,-99.99,,2013-10-22 20:23:00,
2013-10-22 16:43:00,44.0,-99.9,-100.00,South,181,0.0,-999.0,-999,-99.99,,,-99.99,,2013-10-22 20:43:00,
2013-10-22 16:52:00,42.0,-99.9,-100.00,WNW,298,1.0,-999.0,-999,-99.99,,,-99.99,,2013-10-22 20:52:00,
2013-10-22 17:23:00,40.0,-99.9,-100.00,WNW,293,0.0,-999.0,-999,-99.99,,,-99.99,,2013-10-22 21:23:00,
2013-10-22 17:44:00,39.0,-99.9,-100.00,NW,304,0.0,-999.0,-999,-99.99,,,-99.99,,2013-10-22 21:44:00,
2013-10-22 17:54:00,38.0,-99.9,-100.00,WSW,247,1.0,-999.0,-999,-99.99,,,-99.99,,2013-10-22 21:54:00,
2013-10-22 18:24:00,37.0,-99.9,-100.00,North,359,1.0,-999.0,-999,-99.99,,,-99.99,,2013-10-22 22:24:00,
2013-10-22 18:44:00,37.0,-99.9,-100.00,North,0,1.0,-999.0,-999,-99.99,,,-99.99,,2013-10-22 22:44:00,
2013-10-22 18:54:00,37.0,-99.9,-100.00,North,0,0.0,-999.0,-999,-99.99,,,-99.99,,2013-10-22 22:54:00,
2013-10-22 19:23:00,37.0,-99.9,-100.00,North,356,2.0,-999.0,-999,-99.99,,,-99.99,,2013-10-22 23:23:00,
2013-10-22 19:43:00,37.0,-99.9,-100.00,North,0,2.0,-999.0,-999,-99.99,,,-99.99,,2013-10-22 23:43:00,
2013-10-22 19:53:00,37.0,-99.9,-100.00,North,0,2.0,-999.0,-999,-99.99,,,-99.99,,2013-10-22 23:53:00,
2013-10-22 20:11:00,36.0,-99.9,-100.00,North,0,0.0,-999.0,-999,-99.99,,,-99.99,,2013-10-23 00:11:00,
2013-10-22 20:22:00,37.0,-99.9,-100.00,North,0,1.0,-999.0,-999,-99.99,,,-99.99,,2013-10-23 00:22:00,
2013-10-22 20:42:00,36.0,-99.9,-100.00,North,0,0.0,-999.0,-999,-99.99,,,-99.99,,2013-10-23 00:42:00,
2013-10-22 20:52:00,36.0,-99.9,-100.00,North,0,0.0,-999.0,-999,-99.99,,,-99.99,,2013-10-23 00:52:00,
2013-10-22 21:12:00,36.0,-99.9,-100.00,North,0,0.0,-999.0,-999,-99.99,,,-99.99,,2013-10-23 01:12:00,
2013-10-22 21:23:00,36.0,-99.9,-100.00,North,0,2.0,-999.0,-999,-99.99,,,-99.99,,2013-10-23 01:23:00,
2013-10-22 21:42:00,36.0,-99.9,-100.00,North,0,0.0,-999.0,-999,-99.99,,,-99.99,,2013-10-23 01:42:00,
2013-10-22 21:53:00,36.0,-99.9,-100.00,North,0,0.0,-999.0,-999,-99.99,,,-99.99,,2013-10-23 01:53:00,
2013-10-22 22:22:00,36.0,-99.9,-100.00,North,0,0.0,-999.0,-999,-99.99,,,-99.99,,2013-10-23 02:22:00,
2013-10-22 22:42:00,36.0,-99.9,-100.00,NNE,31,0.0,-999.0,-999,-99.99,,,-99.99,,2013-10-23 02:42:00,
2013-10-22 22:54:00,36.0,-99.9,-100.00,NE,39,0.0,-999.0,-999,-99.99,,,-99.99,,2013-10-23 02:54:00,
2013-10-22 23:22:00,35.0,-99.9,-100.00,NNE,20,0.0,-999.0,-999,-99.99,,,-99.99,,2013-10-23 03:22:00,
2013-10-22 23:55:00,35.0,-99.9,-100.00,NNE,22,0.0,-999.0,-999,-99.99,,,-99.99,,2013-10-23 03:55:00,